Jamestown, NY

10:35 AM EST on November 12, 2019 (GMT -0500)
Chautauqua County-Jamestown

Weather History for KJHW - October, 2019

Change the Weather History Date:

Tuesday, October 22, 2019

  Actual Average Record
Temperature  
Mean Temperature 52 °F -  
Max Temperature 57 °F 55 °F 77 °F (1979)
Min Temperature 46 °F 33 °F 22 °F (1974)
Degree Days  
Heating Degree Days 14    
Growing Degree Days 2 (Base 50)    
Moisture  
Dew Point 51 °F    
Average Humidity 92    
Maximum Humidity 100    
Minimum Humidity 72    
Precipitation  
Precipitation 0.87 in - - ()
Sea Level Pressure  
Sea Level Pressure 29.80 in    
Wind  
Wind Speed 10 mph (South)    
Max Wind Speed 14 mph    
Max Gust Speed 25 mph    
Visibility 8 miles    
Events Rain    
Averages and records for this station are not official NWS values.
T = Trace of Precipitation, MM = Missing Value Source: NWS Daily Summary

Daily Weather History Graph

Daily Weather History Graph

Search for Another Location

Airport or City:

Astronomy

Oct. 22, 2019 Rise Set
Actual Time 7:37 AM EDT 6:24 PM EDT
Civil Twilight 7:09 AM EDT 6:53 PM EDT
Nautical Twilight 6:36 AM EDT 7:25 PM EDT
Astronomical Twilight 6:03 AM EDT 7:58 PM EDT
Moon 12:36 AM EDT (10/22) 3:41 PM EDT (10/22)
Length of Visible Light 11h 44m
Length of Day
10h 47m
Last Quarter, 37% of the Moon is Illuminated
Oct 22
Last Quarter
Oct 27
New
Nov 4
First Quarter
Nov 12
Full
Nov 19
Last Quarter

Hourly Weather History & Observations

Time (EDT) Temp. Windchill Dew Point Humidity Pressure Visibility Wind Dir Wind Speed Gust Speed Precip Events Conditions
12:56 AM 57.0 °F - 48.0 °F 72% 29.86 in 10.0 mi SSE 13.8 mph 20.7 mph N/A   Overcast
1:56 AM 57.0 °F - 48.9 °F 74% 29.84 in 10.0 mi SSE 13.8 mph 25.3 mph N/A   Mostly Cloudy
2:56 AM 57.0 °F - 48.9 °F 74% 29.83 in 10.0 mi SSE 13.8 mph 21.9 mph N/A   Overcast
3:56 AM 55.9 °F - 48.9 °F 77% 29.81 in 10.0 mi SSE 11.5 mph - N/A   Overcast
4:47 AM 55.4 °F - 50.0 °F 82% 29.81 in 10.0 mi SSE 10.4 mph - 0.00 in Rain Light Rain
4:56 AM 55.0 °F - 50.0 °F 83% 29.81 in 10.0 mi SSE 11.5 mph 16.1 mph 0.00 in   Overcast
5:56 AM 54.0 °F - 52.0 °F 93% 29.83 in 5.0 mi SSW 5.8 mph - 0.02 in Rain Light Rain
6:05 AM 53.6 °F - 51.8 °F 94% 29.83 in 5.0 mi South 6.9 mph - 0.01 in Rain Light Rain
6:23 AM 53.6 °F - 51.8 °F 94% 29.82 in 7.0 mi South 9.2 mph - 0.02 in Rain Light Rain
6:56 AM 53.1 °F - 52.0 °F 96% 29.81 in 9.0 mi SSE 8.1 mph - 0.03 in Rain Light Rain
7:06 AM 53.6 °F - 51.8 °F 94% 29.80 in 10.0 mi SSE 9.2 mph - 0.00 in Rain Light Rain
7:56 AM 53.1 °F - 52.0 °F 96% 29.80 in 8.0 mi SSE 11.5 mph 17.3 mph 0.00 in   Overcast
8:36 AM 53.6 °F - 53.6 °F 100% 29.82 in 2.0 mi SSW 8.1 mph - 0.05 in Rain Heavy Rain
8:48 AM 53.6 °F - 53.6 °F 100% 29.82 in 3.0 mi SSW 6.9 mph - 0.14 in Rain Rain
8:56 AM 53.1 °F - 53.1 °F 100% 29.82 in 4.0 mi South 5.8 mph - 0.16 in Rain Rain
9:16 AM 53.6 °F - 53.6 °F 100% 29.80 in 4.0 mi South 4.6 mph - 0.05 in Rain Rain
9:34 AM 53.6 °F - 53.6 °F 100% 29.80 in 3.0 mi SSW 5.8 mph - 0.09 in Rain Rain
9:56 AM 54.0 °F - 53.1 °F 97% 29.83 in 4.0 mi SSW 8.1 mph - 0.15 in Rain Rain
10:26 AM 53.6 °F - 53.6 °F 100% 29.83 in 7.0 mi SSW 10.4 mph - 0.16 in Rain Rain
10:56 AM 54.0 °F - 53.1 °F 97% 29.82 in 10.0 mi South 6.9 mph - 0.19 in Rain Light Rain
11:56 AM 54.0 °F - 52.0 °F 93% 29.79 in 10.0 mi SSE 8.1 mph - 0.03 in Rain Light Rain
12:56 PM 54.0 °F - 53.1 °F 97% 29.76 in 10.0 mi SSE 10.4 mph - 0.00 in   Overcast
1:56 PM 53.1 °F - 52.0 °F 96% 29.75 in 10.0 mi SSE 6.9 mph - 0.06 in Rain Light Rain
2:45 PM 53.6 °F - 51.8 °F 94% 29.73 in 10.0 mi South 9.2 mph - 0.00 in   Overcast
2:50 PM 53.6 °F - 51.8 °F 94% 29.74 in 10.0 mi South 6.9 mph - 0.00 in   Overcast
2:56 PM 53.1 °F - 52.0 °F 96% 29.74 in 10.0 mi South 8.1 mph - 0.00 in   Overcast
3:56 PM 53.1 °F - 51.1 °F 93% 29.77 in 10.0 mi South 10.4 mph 17.3 mph N/A   Overcast
4:56 PM 53.1 °F - 50.0 °F 89% 29.75 in 10.0 mi South 11.5 mph 18.4 mph N/A   Overcast
5:40 PM 53.6 °F - 50.0 °F 88% 29.73 in 10.0 mi South 10.4 mph - N/A   Overcast
5:56 PM 53.1 °F - 50.0 °F 89% 29.75 in 10.0 mi South 9.2 mph - N/A   Mostly Cloudy
6:56 PM 51.1 °F - 48.9 °F 92% 29.77 in 10.0 mi South 8.1 mph - N/A   Mostly Cloudy
7:11 PM 51.8 °F - 48.2 °F 88% 29.78 in 10.0 mi West 12.7 mph 17.3 mph N/A   Overcast
7:56 PM 48.9 °F - 48.0 °F 97% 29.82 in 9.0 mi WSW 4.6 mph - 0.17 in Rain Rain
8:56 PM 48.9 °F - 46.9 °F 93% 29.83 in 10.0 mi WSW 4.6 mph - 0.06 in Rain Light Rain
9:56 PM 46.9 °F - 45.0 °F 93% 29.85 in 10.0 mi WSW 8.1 mph - 0.00 in   Partly Cloudy
10:56 PM 46.9 °F - 44.1 °F 90% 29.85 in 10.0 mi SW 6.9 mph - N/A   Overcast
11:56 PM 46.0 °F 41.9 °F 41.0 °F 83% 29.86 in 10.0 mi SSW 8.1 mph - N/A   Partly Cloudy